FW1247 Weather Reports


time (UTC)temp
C
wind
direction
speed
KPH
gust
KPH
rain 1hr
cm
rain 24hr
cm
rain mn
cm
humidity
%
barometer
mb
20260904083047 16 182 6.4 14.5 0.15 0.84 0.33 95 1000.5
20260904081552 16 186 4.8 12.9 0.18 0.81 0.30 95 1000.9
20260904080044 16 201 9.7 19.3 0.18 0.79 0.25 95 1001.1
20260904074539 16 179 8.0 14.5 0.15 0.84 0.20 95 1001.3
20260904073035 16 211 3.2 14.5 0.13 0.79 0.15 94 1001.4
20260904071534 16 164 4.8 12.9 0.10 0.76 0.13 94 1001.6
20260904070033 16 175 6.4 14.5 0.05 0.71 0.08 94 1001.7
20260904064532 16 196 3.2 8.0 0.05 1.04 0.05 94 1001.7
20260904063035 16 221 3.2 8.0 0.03 1.02 0.05 94 1001.9
20260904061539 16 198 4.8 12.9 0.00 0.99 0.03 94 1002.0
20260904060025 16 187 6.4 12.9 0.03 0.99 0.03 93 1002.3
20260904054523 16 193 8.0 17.7 0.03 1.04 0.03 93 1002.5
20260904053018 16 219 11.3 24.1 0.03 1.04 0.03 93 1002.9
20260904051515 16 225 9.7 16.1 0.03 1.04 0.03 93 1003.1
20260904050018 16 190 6.4 14.5 0.00 1.02 0.00 92 1003.1
20260904044509 16 198 4.8 14.5 0.00 1.04 0.00 91 1003.4
20260904043008 16 201 9.7 19.3 0.00 1.04 0.00 90 1003.8
20260904041506 16 221 8.0 16.1 0.00 1.04 0.00 90 1003.8
20260904040008 16 211 11.3 16.1 0.00 1.04 0.00 89 1003.8
20260904034503 16 242 8.0 29.0 0.00 1.09 0.00 90 1004.0
20260904033101 16 196 6.4 17.7 0.00 1.09 0.00 91 1004.5
20260904031558 17 221 8.0 16.1 0.00 1.09 0.00 90 1004.4
20260904030107 17 216 8.0 16.1 0.00 1.09 0.00 90 1004.5
20260904024557 17 232 9.7 19.3 0.00 1.09 0.00 89 1004.6
20260904023054 17 201 9.7 16.1 0.00 1.09 0.00 89 1004.7
20260904021552 17 288 9.7 22.5 0.00 1.09 0.00 88 1005.0
20260904020052 17 196 6.4 27.4 0.00 1.09 0.00 88 1005.0
20260904014556 17 232 11.3 24.1 0.00 1.09 0.00 89 1004.8
20260904013048 17 228 8.0 22.5 0.00 1.09 0.00 88 1004.9
20260904011544 17 254 11.3 24.1 0.00 1.09 0.00 88 1005.0
20260904010043 17 239 11.3 20.9 0.00 1.09 0.00 88 1005.1
20260904004541 17 237 11.3 22.5 0.00 1.09 0.00 88 1005.3
20260904003042 17 216 12.9 24.1 0.00 1.09 0.00 88 1005.3
20260904001536 17 244 9.7 24.1 0.00 1.09 0.00 88 1005.4
20260904000034 17 205 8.0 20.9 0.00 1.09 0.00 89 1005.6
20260903234533 17 284 8.0 22.5 0.00 1.09 0.00 90 1005.5
20260903233029 17 242 9.7 19.3 0.00 1.09 0.00 90 1005.5
20260903231531 17 223 8.0 19.3 0.00 1.09 0.00 91 1005.5
20260903230030 17 280 8.0 19.3 0.00 1.09 0.00 91 1005.6
20260903224528 17 212 6.4 16.1 0.00 1.09 0.00 91 1005.8
20260903223021 17 284 4.8 20.9 0.00 1.09 0.00 91 1006.0
20260903221521 17 254 8.0 16.1 0.00 1.09 0.00 91 1006.0
20260903220018 17 240 8.0 16.1 0.00 1.09 0.00 91 1005.9
20260903214528 17 248 6.4 17.7 0.00 1.09 1.09 92 1005.9
20260903213016 17 232 6.4 20.9 0.00 1.09 1.09 92 1005.9
20260903211515 17 248 6.4 16.1 0.00 1.09 1.09 92 1005.9
20260903210020 17 246 6.4 24.1 0.00 1.09 1.09 92 1006.0
20260903204514 17 240 6.4 14.5 0.00 1.09 1.09 92 1005.9
20260903203023 17 211 3.2 25.7 0.00 1.09 1.09 92 1006.0
20260903201514 17 236 6.4 16.1 0.00 1.09 1.09 92 1006.0
20260903200012 17 211 6.4 16.1 0.00 1.09 1.09 93 1005.9
20260903194519 17 216 4.8 14.5 0.00 1.09 1.09 93 1005.8
20260903193011 17 249 9.7 19.3 0.00 1.09 1.09 92 1005.9
20260903191512 17 286 12.9 24.1 0.03 1.09 1.09 93 1005.9
20260903190009 17 295 12.9 24.1 0.03 1.09 1.09 93 1005.9
20260903184509 17 281 6.4 27.4 0.03 1.09 1.09 93 1005.8
20260903183009 17 254 17.7 33.8 0.25 1.09 1.09 93 1005.6
20260903181507 18 280 11.3 24.1 0.33 1.07 1.07 94 1005.4
20260903180006 18 219 11.3 20.9 0.38 1.07 1.07 94 1005.1
20260903174506 18 279 14.5 32.2 0.38 1.07 1.07 93 1005.0
20260903173105 18 230 12.9 32.2 0.15 0.81 0.81 91 1005.1
20260903171504 19 205 11.3 33.8 0.05 0.71 0.71 90 1005.0
20260903170009 20 244 14.5 24.1 0.00 0.69 0.69 88 1004.9
20260903164503 20 194 14.5 27.4 0.00 0.69 0.69 88 1004.8
20260903163001 20 221 17.7 27.4 0.00 0.69 0.69 88 1004.8
20260903161501 20 190 12.9 22.5 0.00 0.69 0.69 89 1004.8
20260903160002 20 183 9.7 25.7 0.00 0.69 0.69 89 1004.8
20260903154603 20 205 12.9 32.2 0.00 0.69 0.69 89 1004.8
20260903153058 20 242 19.3 37.0 0.00 0.69 0.69 88 1004.8
20260903151557 20 194 16.1 32.2 0.00 0.69 0.69 88 1005.1
20260903150058 20 218 17.7 37.0 0.00 0.69 0.69 89 1005.0
20260903144554 20 196 16.1 37.0 0.00 0.69 0.69 90 1005.1
20260903143106 19 160 14.5 27.4 0.00 0.69 0.69 91 1005.2
20260903141551 19 219 14.5 32.2 0.00 0.69 0.69 91 1005.3
20260903140051 19 229 19.3 43.5 0.00 0.69 0.69 90 1005.3
20260903134549 20 201 19.3 32.2 0.00 0.69 0.69 91 1005.1
20260903133046 19 176 11.3 30.6 0.00 0.69 0.69 93 1005.1
20260903131604 18 186 14.5 38.6 0.00 0.69 0.69 93 1005.2
20260903130044 18 221 16.1 29.0 0.00 0.69 0.69 95 1005.2
20260903124540 18 200 14.5 29.0 0.00 0.69 0.69 95 1005.4
20260903123041 17 202 14.5 30.6 0.00 0.69 0.69 95 1005.3
20260903121536 17 189 11.3 27.4 0.03 0.69 0.69 96 1005.3
20260903120032 17 171 12.9 29.0 0.05 0.69 0.69 96 1005.4
20260903114530 17 191 6.4 16.1 0.05 0.69 0.69 96 1005.5
20260903113037 17 166 9.7 17.7 0.05 0.69 0.69 96 1005.9
20260903111525 17 209 11.3 20.9 0.05 0.66 0.66 96 1006.1
20260903110025 17 180 14.5 22.5 0.03 0.64 0.64 95 1006.1
20260903104522 16 185 12.9 22.5 0.03 0.64 0.64 96 1006.3
20260903103019 16 201 12.9 24.1 0.00 0.61 0.61 96 1006.5
20260903101522 16 184 14.5 24.1 0.05 0.61 0.61 96 1006.5
20260903100020 16 177 14.5 27.4 0.05 0.61 0.61 96 1006.6
20260903094514 16 192 17.7 29.0 0.05 0.61 0.61 95 1006.8
20260903093012 16 190 11.3 22.5 0.05 0.61 0.61 95 1007.1
20260903091516 16 167 16.1 29.0 0.00 0.56 0.56 94 1007.2
20260903090005 16 182 12.9 30.6 0.00 0.56 0.56 95 1007.4
20260903084503 16 143 14.5 25.7 0.03 0.56 0.56 95 1007.5